Weather History for Vancouver, WA

Change the Weather History Date:

Monday, February 18, 2013

  Actual Average Record
Temperature  
Mean Temperature 39 °F 44 °F  
Max Temperature 47 °F 52 °F 66 °F (1896)
Min Temperature 31 °F 35 °F 22 °F (1936)
Degree Days  
Heating Degree Days 26    
Month to date heating degree days 395  
Since 1 July heating degree days 2818  
Cooling Degree Days 0    
Month to date cooling degree days 0  
Year to date cooling degree days 0  
Moisture  
Dew Point 33 °F    
Average Humidity 73    
Maximum Humidity 92    
Minimum Humidity 53    
Precipitation  
Precipitation 0.02 in 0.11 in 1.00 in (1999)
Month to date precipitation 0.25 2.72  
Year to date precipitation 3.65 8.22  
Snow  
Snow 0.00 in - - ()
Month to date snowfall 0.0  
Snow Depth 0.00 in    
Sea Level Pressure  
Sea Level Pressure 29.96 in    
Wind  
Wind Speed 4 mph (SE)    
Max Wind Speed 12 mph    
Max Gust Speed 17 mph    
Visibility 10 miles    
Events Rain    
T = Trace of Precipitation, MM = Missing Value Source: NWS Daily Summary

Daily Weather History Graph

Daily Weather History Graph

Search for Another Location

Airport:

Trip Planner

Search our weather history database for the weather conditions in past years. The results will help you decide how hot, cold, wet, or windy it might be!

Date:

Astronomy

Feb. 18, 2013 Rise Set
Actual Time 7:07 AM PST 5:42 PM PST
Civil Twilight 6:36 AM PST 6:12 PM PST
Nautical Twilight 6:02 AM PST 6:47 PM PST
Astronomical Twilight 5:28 AM PST 7:21 PM PST
Moon 11:23 AM PST (2/18) 2:00 AM PST (2/18)
Length of Visible Light 11h 35m
Length of Day
10h 35m
First Quarter, 59% of the Moon is Illuminated
Feb 18
First Quarter
Feb 25
Full
Mar 4
Last Quarter
Mar 11
New
Mar 19
First Quarter

Hourly Weather History & Observations

Time (PST) Temp. Windchill Dew Point Humidity Pressure Visibility Wind Dir Wind Speed Gust Speed Precip Events Conditions
12:53 AM 34.0 °F - 30.0 °F 85% 30.10 in 10.0 mi Calm Calm - N/A   Clear
1:53 AM 36.0 °F - 32.0 °F 86% 30.08 in 10.0 mi Calm Calm - N/A   Partly Cloudy
2:53 AM 35.1 °F - 30.9 °F 85% 30.07 in 10.0 mi Calm Calm - N/A   Mostly Cloudy
3:53 AM 32.0 °F - 30.0 °F 92% 30.04 in 10.0 mi Calm Calm - N/A   Clear
4:53 AM 33.1 °F - 30.0 °F 89% 30.02 in 10.0 mi Calm Calm - N/A   Partly Cloudy
5:53 AM 33.1 °F - 30.9 °F 92% 30.03 in 10.0 mi Calm Calm - N/A   Clear
6:53 AM 30.9 °F - 28.9 °F 92% 30.03 in 10.0 mi Calm Calm - N/A   Clear
7:18 AM 32.0 °F - 28.4 °F 87% 30.03 in 10.0 mi Calm Calm - N/A   Scattered Clouds
7:27 AM 33.8 °F 30.8 °F 30.2 °F 87% 30.02 in 10.0 mi ENE 3.5 mph - N/A   Mostly Cloudy
7:53 AM 36.0 °F - 32.0 °F 86% 30.04 in 10.0 mi Calm Calm - N/A   Scattered Clouds
8:53 AM 37.9 °F 33.5 °F 33.1 °F 83% 30.03 in 10.0 mi East 5.8 mph - N/A   Overcast
9:53 AM 39.0 °F 36.8 °F 33.1 °F 79% 30.03 in 10.0 mi ESE 3.5 mph - N/A   Overcast
10:53 AM 42.1 °F 38.4 °F 34.0 °F 73% 30.01 in 10.0 mi ESE 5.8 mph - N/A   Overcast
11:53 AM 43.0 °F 38.8 °F 34.0 °F 71% 30.00 in 10.0 mi ESE 6.9 mph - N/A   Overcast
12:53 PM 45.0 °F 42.6 °F 34.0 °F 65% 29.97 in 10.0 mi SE 4.6 mph - N/A   Overcast
1:53 PM 46.0 °F 41.9 °F 30.9 °F 56% 29.95 in 10.0 mi South 8.1 mph - N/A   Overcast
2:53 PM 46.9 °F - 30.9 °F 54% 29.93 in 10.0 mi SSW 4.6 mph - N/A   Overcast
3:53 PM 46.9 °F - 32.0 °F 56% 29.91 in 10.0 mi SSE 6.9 mph - N/A   Overcast
4:53 PM 46.0 °F 43.9 °F 34.0 °F 63% 29.89 in 10.0 mi SSE 4.6 mph - 0.00 in Rain Light Rain
5:53 PM 46.0 °F 43.9 °F 34.0 °F 63% 29.87 in 10.0 mi South 4.6 mph - 0.00 in Rain Light Rain
6:53 PM 45.0 °F 43.5 °F 35.1 °F 68% 29.84 in 10.0 mi ESE 3.5 mph - 0.00 in   Overcast
7:53 PM 44.1 °F 41.5 °F 35.1 °F 71% 29.83 in 10.0 mi ESE 4.6 mph - N/A   Overcast
8:53 PM 43.0 °F 38.8 °F 36.0 °F 76% 29.81 in 10.0 mi East 6.9 mph - 0.00 in   Overcast
9:53 PM 44.1 °F 40.1 °F 35.1 °F 71% 29.80 in 10.0 mi ESE 6.9 mph - 0.01 in Rain Light Rain
10:53 PM 42.1 °F 39.2 °F 36.0 °F 79% 29.78 in 10.0 mi SE 4.6 mph - 0.01 in   Overcast
11:53 PM 42.1 °F 36.6 °F 35.1 °F 76% 29.76 in 10.0 mi East 9.2 mph - N/A   Overcast